This demonstration page uses our WeatherBlox Daily Observations layout. Learn more.

Left ArrowRight Arrow

Hourly Observations for June 8, 2021

Temp ( °F °C ) Dew Point ( °F °C ) Humidity (%) Winds ( mph kmh ) Pressure ( in mb ) Visibility ( mi km ) Precip ( " mm )
12:59 am 00:59 Partly Cloudy 77 25 71 21.7 82 82 SW 8 13 30.14 1021 10 16 0.00 0.00
1:59 am 01:59 Partly Cloudy 76 24.4 72 22.2 88 88 SSW 6 9 30.12 1020 10 16 0.00 0.00
2:59 am 02:59 Partly Cloudy 76 24.4 72 22.2 88 88 SSW 8 13 30.12 1020 9 14 0.00 0.00
3:59 am 03:59 Mostly Cloudy 76 24.4 72 22.2 88 88 SW 7 11 30.12 1020 9 14 0.00 0.00
4:21 am 04:21 Partly Cloudy 76 24.4 72 22.2 88 88 SW 7 11 30.12 1020 9 14 0.00 0.00
4:34 am 04:34 Mostly Cloudy 77 25 73 22.8 88 88 undefined N/A 30.13 1020 9 14 0.00 0.00
4:59 am 04:59 Mostly Cloudy 76 24.4 73 22.8 91 91 SW 7 11 30.13 1020 8 13 0.00 0.00
5:02 am 05:02 Partly Cloudy 76 24.4 73 22.8 91 91 SSW 6 9 30.13 1020 8 13 0.00 0.00
5:59 am 05:59 Mostly Cloudy 77 25 73 22.8 88 88 SW 6 9 30.14 1021 8 13 0.00 0.00
6:59 am 06:59 Mostly Cloudy 77 25 71 21.7 82 82 SW 7 11 30.15 1021 9 14 0.00 0.00
7:59 am 07:59 Sunny 78 25.6 70 21.1 76 76 SW 8 13 30.15 1021 10 16 0.00 0.00
8:59 am 08:59 Mostly Cloudy 81 27.2 70 21.1 69 69 SW 10 17 30.16 1021 10 16 0.00 0.00
9:59 am 09:59 Mostly Cloudy 83 28.3 70 21.1 65 65 SW 9 15 30.15 1021 10 16 0.00 0.00
10:59 am 10:59 Mostly Cloudy 85 29.4 70 21.1 61 61 SW 12 19 30.15 1021 10 16 0.00 0.00
11:59 am 11:59 Mostly Cloudy 85 29.4 70 21.1 61 61 WSW 13 20 30.15 1021 10 16 0.00 0.00
12:59 pm 12:59 Mostly Cloudy 85 29.4 70 21.1 61 61 SW 15 24 30.13 1020 10 16 0.00 0.00
1:59 pm 13:59 Sunny 85 29.4 71 21.7 63 63 SW 15 24 30.12 1020 10 16 0.00 0.00
2:59 pm 14:59 Mostly Cloudy 87 30.6 71 21.7 59 59 SW 10 17 30.09 1019 10 16 0.00 0.00
3:59 pm 15:59 Mostly Cloudy 88 31.1 71 21.7 57 57 SW 13 20 30.08 1019 10 16 0.00 0.00
4:59 pm 16:59 Mostly Cloudy 86 30 70 21.1 59 59 SW 14 22 30.06 1018 10 16 0.00 0.00
5:59 pm 17:59 Mostly Cloudy 87 30.6 70 21.1 57 57 SSW 12 19 30.06 1018 10 16 0.00 0.00
6:59 pm 18:59 Mostly Cloudy 86 30 70 21.1 59 59 SW 8 13 30.07 1018 10 16 0.00 0.00
7:59 pm 19:59 Mostly Cloudy 84 28.9 71 21.7 65 65 SSW 8 13 30.07 1018 10 16 0.00 0.00
8:59 pm 20:59 Mostly Cloudy 83 28.3 71 21.7 67 67 SSW 7 11 30.08 1019 10 16 0.00 0.00
9:59 pm 21:59 Mostly Cloudy 82 27.8 70 21.1 67 67 SSW 8 13 30.09 1019 10 16 0.00 0.00
10:59 pm 22:59 Mostly Cloudy 81 27.2 70 21.1 69 69 SSW 8 13 30.10 1019 10 16 0.00 0.00
11:59 pm 23:59 Mostly Cloudy 81 27.2 69 20.6 67 67 SW 8 13 30.10 1019 10 16 0.00 0.00

Powered by AerisWeather